This is the latest recevied weather packets stored in our database for station/object KE8ZLU. If no packets are shown the sender has not sent any weather packets the latest 10 day(s).
| Time | Temp. | Humidity | Pressure | Rain* | Wind** | Luminosity | Snow |
|---|---|---|---|---|---|---|---|
| 1778076853 | 7.78° C | 60% | 1014 hPa | 0 mm | - | 354 W/m² | - |
| 1778076552 | 7.78° C | 61% | 1013.8 hPa | 0 mm | - | 408 W/m² | - |
| 1778076248 | 7.78° C | 64% | 1013.7 hPa | 0 mm | - | 390 W/m² | - |
| 1778075945 | 7.78° C | 62% | 1014 hPa | 0 mm | - | 451 W/m² | - |
| 1778075642 | 7.78° C | 62% | 1013.7 hPa | 0 mm | - | 451 W/m² | - |
| 1778075338 | 7.78° C | 60% | 1013.6 hPa | 0 mm | - | 233 W/m² | - |
| 1778075034 | 7.78° C | 60% | 1013.5 hPa | 0 mm | - | 233 W/m² | - |
| 1778074731 | 7.22° C | 62% | 1013.6 hPa | 0 mm | - | 240 W/m² | - |
| 1778074428 | 7.22° C | 62% | 1013.6 hPa | 0 mm | - | 240 W/m² | - |
| 1778074125 | 7.22° C | 62% | 1013.8 hPa | 0 mm | - | 240 W/m² | - |
| 1778073822 | 7.22° C | 61% | 1013.6 hPa | 0 mm | - | 184 W/m² | - |
| 1778073520 | 7.22° C | 61% | 1013.6 hPa | 0 mm | - | 235 W/m² | - |
| 1778073216 | 7.22° C | 62% | 1013.5 hPa | 0 mm | - | 322 W/m² | - |
| 1778072914 | 6.67° C | 64% | 1013.5 hPa | 0 mm | - | 213 W/m² | - |
| 1778072610 | 6.67° C | 64% | 1013.5 hPa | 0 mm | - | 213 W/m² | - |
| 1778072308 | 6.67° C | 64% | 1013.4 hPa | 0 mm | - | 213 W/m² | - |
| 1778072006 | 6.11° C | 68% | 1013.5 hPa | 0 mm | - | 182 W/m² | - |
| 1778071704 | 6.11° C | 68% | 1013.3 hPa | 0 mm | - | 182 W/m² | - |
| 1778071401 | 6.11° C | 68% | 1013.1 hPa | 0 mm | - | 182 W/m² | - |
| 1778071098 | 6.11° C | 68% | 1013.1 hPa | 0 mm | - | 182 W/m² | - |
| 1778070797 | 6.11° C | 68% | 1013.1 hPa | 0 mm | - | 182 W/m² | - |
| 1778070493 | 6.11° C | 68% | 1013.3 hPa | 0 mm | - | 182 W/m² | - |
| 1778070190 | 6.11° C | 67% | 1012.9 hPa | 0 mm | - | 157 W/m² | - |
| 1778069888 | 6.11° C | 69% | 1013 hPa | 0 mm | - | 129 W/m² | - |
| 1778069585 | 6.11° C | 69% | 1012.6 hPa | 0 mm | - | 129 W/m² | - |
* Rain latest hour (hover to see other rain measurements)
** Current wind speed in m/s (hover to see current wind gust speed)